Time,TemperatureF,DewpointF,PressureIn,WindDirection,WindDirectionDegrees,WindSpeedMPH,WindSpeedGustMPH,Humidity,HourlyPrecipIn,Conditions,Clouds,dailyrainin,SoftwareType,DateUTC
2013-05-05 00:01:00,46.0,30.0,29.43,NNW,346,5.0,14.0,54,0.00,,,0.00,,2013-05-05 06:01:00,
2013-05-05 00:11:00,46.0,30.0,29.43,NNW,346,5.0,14.0,54,0.00,,,0.00,,2013-05-05 06:11:00,
2013-05-05 00:21:00,45.0,29.0,29.41,NNW,332,8.0,14.0,54,0.00,,,0.00,,2013-05-05 06:21:00,
2013-05-05 00:31:00,45.0,29.0,29.42,NNW,337,5.0,10.0,54,0.00,,,0.00,,2013-05-05 06:31:00,
2013-05-05 00:42:00,45.0,29.0,29.42,NNW,337,5.0,10.0,54,0.00,,,0.00,,2013-05-05 06:42:00,
2013-05-05 00:52:00,45.0,30.0,29.41,NW,320,8.0,14.0,55,0.00,,,0.00,,2013-05-05 06:52:00,
2013-05-05 01:01:00,44.0,29.0,29.42,North,0,7.0,12.0,55,0.00,,,0.00,,2013-05-05 07:01:00,
2013-05-05 01:11:00,44.0,29.0,29.42,North,0,7.0,12.0,55,0.00,,,0.00,,2013-05-05 07:11:00,
2013-05-05 01:21:00,44.0,29.0,29.42,WNW,298,5.0,12.0,55,0.00,,,0.00,,2013-05-05 07:21:00,
2013-05-05 01:31:00,44.0,29.0,29.42,NNW,345,7.0,13.0,55,0.00,,,0.00,,2013-05-05 07:31:00,
2013-05-05 01:42:00,44.0,29.0,29.42,NNW,345,7.0,13.0,55,0.00,,,0.00,,2013-05-05 07:42:00,
2013-05-05 01:52:00,44.0,29.0,29.42,NNW,348,5.0,8.0,56,0.00,,,0.00,,2013-05-05 07:52:00,
2013-05-05 02:02:00,43.0,28.0,29.44,North,354,4.0,6.0,56,0.00,,,0.00,,2013-05-05 08:02:00,
2013-05-05 02:11:00,43.0,28.0,29.44,North,354,4.0,6.0,56,0.00,,,0.00,,2013-05-05 08:11:00,
2013-05-05 02:21:00,43.0,28.0,29.44,NNW,347,7.0,12.0,56,0.00,,,0.00,,2013-05-05 08:21:00,
2013-05-05 02:31:00,43.0,28.0,29.43,NNW,335,5.0,10.0,56,0.00,,,0.00,,2013-05-05 08:31:00,
2013-05-05 02:42:00,43.0,28.0,29.43,NNW,335,5.0,10.0,56,0.00,,,0.00,,2013-05-05 08:42:00,
2013-05-05 02:53:00,41.0,28.0,29.44,North,1,0.0,0.0,59,0.00,,,0.00,,2013-05-05 08:53:00,
2013-05-05 03:01:00,41.0,28.0,29.44,North,1,1.0,5.0,60,0.00,,,0.00,,2013-05-05 09:01:00,
2013-05-05 03:11:00,41.0,28.0,29.44,North,1,1.0,5.0,60,0.00,,,0.00,,2013-05-05 09:11:00,
2013-05-05 03:21:00,40.0,28.0,29.45,North,1,0.0,0.0,63,0.00,,,0.00,,2013-05-05 09:21:00,
2013-05-05 03:32:00,39.0,28.0,29.45,North,1,1.0,2.0,64,0.00,,,0.00,,2013-05-05 09:32:00,
2013-05-05 03:42:00,39.0,28.0,29.45,North,1,1.0,2.0,64,0.00,,,0.00,,2013-05-05 09:42:00,
2013-05-05 03:52:00,39.0,28.0,29.45,North,1,0.0,2.0,65,0.00,,,0.00,,2013-05-05 09:52:00,
2013-05-05 04:02:00,39.0,28.0,29.44,NNE,21,0.0,2.0,65,0.00,,,0.00,,2013-05-05 10:02:00,
2013-05-05 04:12:00,39.0,28.0,29.44,NNE,21,0.0,2.0,65,0.00,,,0.00,,2013-05-05 10:12:00,
2013-05-05 04:22:00,39.0,28.0,29.44,North,359,0.0,2.0,65,0.00,,,0.00,,2013-05-05 10:22:00,
2013-05-05 04:32:00,39.0,28.0,29.44,North,0,1.0,2.0,64,0.00,,,0.00,,2013-05-05 10:32:00,
2013-05-05 04:42:00,39.0,28.0,29.44,North,0,1.0,2.0,64,0.00,,,0.00,,2013-05-05 10:42:00,
2013-05-05 04:52:00,38.0,27.0,29.44,North,0,1.0,1.0,64,0.00,,,0.00,,2013-05-05 10:52:00,
2013-05-05 05:01:00,37.0,26.0,29.44,North,0,0.0,0.0,65,0.00,,,0.00,,2013-05-05 11:01:00,
2013-05-05 05:11:00,37.0,26.0,29.44,North,0,0.0,0.0,65,0.00,,,0.00,,2013-05-05 11:11:00,
2013-05-05 05:21:00,36.0,25.0,29.47,NW,323,1.0,3.0,65,0.00,,,0.00,,2013-05-05 11:21:00,
2013-05-05 05:32:00,36.0,26.0,29.47,NW,322,0.0,2.0,67,0.00,,,0.00,,2013-05-05 11:32:00,
2013-05-05 05:42:00,36.0,26.0,29.47,NW,322,0.0,2.0,67,0.00,,,0.00,,2013-05-05 11:42:00,
2013-05-05 05:52:00,36.0,26.0,29.47,NNW,336,1.0,2.0,67,0.00,,,0.00,,2013-05-05 11:52:00,
2013-05-05 06:01:00,35.0,26.0,29.49,NNW,336,0.0,0.0,68,0.00,,,0.00,,2013-05-05 12:01:00,
2013-05-05 06:11:00,35.0,26.0,29.49,NNW,336,0.0,0.0,68,0.00,,,0.00,,2013-05-05 12:11:00,
2013-05-05 06:21:00,34.0,25.0,29.49,NNW,336,0.0,3.0,69,0.00,,,0.00,,2013-05-05 12:21:00,
2013-05-05 06:31:00,35.0,26.0,29.49,NNW,336,1.0,2.0,69,0.00,,,0.00,,2013-05-05 12:31:00,
2013-05-05 06:42:00,35.0,26.0,29.49,NNW,336,1.0,2.0,69,0.00,,,0.00,,2013-05-05 12:42:00,
2013-05-05 06:52:00,35.0,26.0,29.49,NNW,333,1.0,3.0,68,0.00,,,0.00,,2013-05-05 12:52:00,
2013-05-05 07:01:00,35.0,26.0,29.49,NNW,333,0.0,2.0,68,0.00,,,0.00,,2013-05-05 13:01:00,
2013-05-05 07:11:00,35.0,26.0,29.49,NNW,333,0.0,2.0,68,0.00,,,0.00,,2013-05-05 13:11:00,
2013-05-05 07:21:00,35.0,26.0,29.50,NNW,333,0.0,0.0,70,0.00,,,0.00,,2013-05-05 13:21:00,
2013-05-05 07:32:00,36.0,27.0,29.52,NNW,334,1.0,3.0,69,0.00,,,0.00,,2013-05-05 13:32:00,
2013-05-05 07:42:00,36.0,27.0,29.52,NNW,334,1.0,3.0,69,0.00,,,0.00,,2013-05-05 13:42:00,
2013-05-05 07:52:00,37.0,27.0,29.52,NNW,337,1.0,2.0,68,0.00,,,0.00,,2013-05-05 13:52:00,
2013-05-05 08:01:00,38.0,28.0,29.51,NNW,335,0.0,2.0,66,0.00,,,0.00,,2013-05-05 14:01:00,
2013-05-05 08:11:00,40.0,29.0,29.50,NNW,335,0.0,0.0,64,0.00,,,0.00,,2013-05-05 14:11:00,
2013-05-05 08:21:00,40.0,29.0,29.50,NNW,335,0.0,0.0,64,0.00,,,0.00,,2013-05-05 14:21:00,
2013-05-05 08:31:00,40.0,28.0,29.54,NNW,335,0.0,0.0,63,0.00,,,0.00,,2013-05-05 14:31:00,
2013-05-05 08:41:00,40.0,28.0,29.54,NNW,335,0.0,0.0,63,0.00,,,0.00,,2013-05-05 14:41:00,
2013-05-05 08:52:00,41.0,29.0,29.54,NNW,335,0.0,1.0,61,0.00,,,0.00,,2013-05-05 14:52:00,
2013-05-05 09:01:00,41.0,27.0,29.53,North,1,1.0,5.0,58,0.00,,,0.00,,2013-05-05 15:01:00,
2013-05-05 09:11:00,41.0,27.0,29.53,North,1,1.0,5.0,58,0.00,,,0.00,,2013-05-05 15:11:00,
2013-05-05 09:21:00,41.0,27.0,29.55,North,359,0.0,2.0,56,0.00,,,0.00,,2013-05-05 15:21:00,
2013-05-05 09:32:00,42.0,26.0,29.54,SE,131,6.0,12.0,52,0.00,,,0.00,,2013-05-05 15:32:00,
2013-05-05 09:42:00,42.0,26.0,29.54,SE,131,6.0,12.0,52,0.00,,,0.00,,2013-05-05 15:42:00,
2013-05-05 09:53:00,43.0,26.0,29.54,South,169,2.0,6.0,51,0.00,,,0.00,,2013-05-05 15:53:00,
2013-05-05 10:02:00,44.0,27.0,29.52,ESE,115,5.0,12.0,50,0.00,,,0.00,,2013-05-05 16:02:00,
2013-05-05 10:12:00,44.0,27.0,29.52,ESE,115,5.0,12.0,50,0.00,,,0.00,,2013-05-05 16:12:00,
2013-05-05 10:22:00,45.0,27.0,29.52,East,90,2.0,6.0,49,0.00,,,0.00,,2013-05-05 16:22:00,
2013-05-05 10:32:00,48.0,28.0,29.49,ENE,68,3.0,7.0,45,0.00,,,0.00,,2013-05-05 16:32:00,
2013-05-05 10:42:00,48.0,28.0,29.49,ENE,68,3.0,7.0,45,0.00,,,0.00,,2013-05-05 16:42:00,
2013-05-05 10:52:00,49.0,27.0,29.47,NW,315,1.0,7.0,43,0.00,,,0.00,,2013-05-05 16:52:00,
2013-05-05 11:01:00,50.0,28.0,29.47,NW,313,2.0,7.0,42,0.00,,,0.00,,2013-05-05 17:01:00,
2013-05-05 11:12:00,50.0,28.0,29.47,NW,313,2.0,7.0,42,0.00,,,0.00,,2013-05-05 17:12:00,
2013-05-05 11:23:00,51.0,28.0,29.47,NW,323,6.0,12.0,40,0.00,,,0.00,,2013-05-05 17:23:00,
2013-05-05 11:31:00,52.0,27.0,29.46,WNW,303,5.0,7.0,38,0.00,,,0.00,,2013-05-05 17:31:00,
2013-05-05 11:41:00,52.0,27.0,29.46,WNW,303,5.0,7.0,38,0.00,,,0.00,,2013-05-05 17:41:00,
2013-05-05 11:52:00,54.0,27.0,29.44,NNW,335,6.0,10.0,35,0.00,,,0.00,,2013-05-05 17:52:00,
2013-05-05 12:01:00,55.0,27.0,29.44,NNW,334,7.0,13.0,34,0.00,,,0.00,,2013-05-05 18:01:00,
2013-05-05 12:11:00,55.0,27.0,29.44,NNW,334,7.0,13.0,34,0.00,,,0.00,,2013-05-05 18:11:00,
2013-05-05 12:21:00,56.0,28.0,29.42,NW,325,9.0,14.0,34,0.00,,,0.00,,2013-05-05 18:21:00,
2013-05-05 12:31:00,57.0,27.0,29.43,NW,309,7.0,13.0,32,0.00,,,0.00,,2013-05-05 18:31:00,
2013-05-05 12:41:00,57.0,27.0,29.43,NW,309,7.0,13.0,32,0.00,,,0.00,,2013-05-05 18:41:00,
2013-05-05 12:52:00,59.0,28.0,29.41,NW,309,9.0,13.0,31,0.00,,,0.00,,2013-05-05 18:52:00,
2013-05-05 13:01:00,59.0,28.0,29.40,NW,321,7.0,13.0,31,0.00,,,0.00,,2013-05-05 19:01:00,
2013-05-05 13:11:00,59.0,28.0,29.40,NW,321,7.0,13.0,31,0.00,,,0.00,,2013-05-05 19:11:00,
2013-05-05 13:21:00,60.0,28.0,29.39,NW,310,8.0,20.0,30,0.00,,,0.00,,2013-05-05 19:21:00,
2013-05-05 13:32:00,60.0,28.0,29.40,NW,304,5.0,12.0,29,0.00,,,0.00,,2013-05-05 19:32:00,
2013-05-05 13:41:00,60.0,28.0,29.40,NW,304,5.0,12.0,29,0.00,,,0.00,,2013-05-05 19:41:00,
2013-05-05 13:52:00,61.0,28.0,29.38,North,350,7.0,12.0,28,0.00,,,0.00,,2013-05-05 19:52:00,
2013-05-05 14:01:00,62.0,28.0,29.37,NNE,23,6.0,12.0,27,0.00,,,0.00,,2013-05-05 20:01:00,
2013-05-05 14:11:00,62.0,28.0,29.37,NNE,23,6.0,12.0,27,0.00,,,0.00,,2013-05-05 20:11:00,
2013-05-05 14:21:00,61.0,21.0,29.37,North,11,5.0,14.0,21,0.00,,,0.00,,2013-05-05 20:21:00,
2013-05-05 14:31:00,64.0,22.0,29.37,West,277,0.0,5.0,20,0.00,,,0.00,,2013-05-05 20:31:00,
2013-05-05 14:41:00,64.0,22.0,29.37,West,277,0.0,5.0,20,0.00,,,0.00,,2013-05-05 20:41:00,
2013-05-05 14:52:00,63.0,20.0,29.37,NW,314,3.0,5.0,19,0.00,,,0.00,,2013-05-05 20:52:00,
2013-05-05 15:01:00,62.0,23.0,29.38,ENE,70,6.0,12.0,22,0.00,,,0.00,,2013-05-05 21:01:00,
2013-05-05 15:11:00,62.0,23.0,29.38,ENE,70,6.0,12.0,22,0.00,,,0.00,,2013-05-05 21:11:00,
2013-05-05 15:21:00,63.0,22.0,29.38,East,84,3.0,10.0,21,0.00,,,0.00,,2013-05-05 21:21:00,
2013-05-05 15:32:00,63.0,22.0,29.38,East,88,10.0,20.0,21,0.00,,,0.00,,2013-05-05 21:32:00,
2013-05-05 15:42:00,63.0,22.0,29.38,East,88,10.0,20.0,21,0.00,,,0.00,,2013-05-05 21:42:00,
2013-05-05 15:53:00,62.0,23.0,29.39,NNE,30,9.0,15.0,22,0.00,,,0.00,,2013-05-05 21:53:00,
2013-05-05 16:02:00,62.0,24.0,29.38,ENE,74,7.0,13.0,23,0.00,,,0.00,,2013-05-05 22:02:00,
2013-05-05 16:12:00,62.0,24.0,29.38,ENE,74,7.0,13.0,23,0.00,,,0.00,,2013-05-05 22:12:00,
2013-05-05 16:22:00,63.0,22.0,29.37,ENE,78,2.0,7.0,21,0.00,,,0.00,,2013-05-05 22:22:00,
2013-05-05 16:33:00,63.0,21.0,29.37,NE,34,7.0,10.0,20,0.00,,,0.00,,2013-05-05 22:33:00,
2013-05-05 16:41:00,63.0,21.0,29.37,NE,34,7.0,10.0,20,0.00,,,0.00,,2013-05-05 22:41:00,
2013-05-05 16:52:00,64.0,21.0,29.36,NNE,16,3.0,8.0,19,0.00,,,0.00,,2013-05-05 22:52:00,
2013-05-05 17:02:00,64.0,21.0,29.36,NE,42,2.0,7.0,19,0.00,,,0.00,,2013-05-05 23:02:00,
2013-05-05 17:11:00,64.0,21.0,29.36,NE,42,2.0,7.0,19,0.00,,,0.00,,2013-05-05 23:11:00,
2013-05-05 17:21:00,63.0,22.0,29.36,East,88,6.0,12.0,21,0.00,,,0.00,,2013-05-05 23:21:00,
2013-05-05 17:31:00,63.0,20.0,29.39,East,98,3.0,8.0,19,0.00,,,0.00,,2013-05-05 23:31:00,
2013-05-05 17:41:00,63.0,20.0,29.39,East,98,3.0,8.0,19,0.00,,,0.00,,2013-05-05 23:41:00,
2013-05-05 17:52:00,63.0,20.0,29.39,ESE,107,0.0,6.0,19,0.00,,,0.00,,2013-05-05 23:52:00,
2013-05-05 18:01:00,64.0,23.0,29.37,NNW,333,5.0,9.0,21,0.00,,,0.00,,2013-05-06 00:01:00,
2013-05-05 18:11:00,64.0,23.0,29.37,NNW,333,5.0,9.0,21,0.00,,,0.00,,2013-05-06 00:11:00,
2013-05-05 18:21:00,63.0,24.0,29.38,NNE,31,8.0,12.0,22,0.00,,,0.00,,2013-05-06 00:21:00,
2013-05-05 18:31:00,63.0,24.0,29.37,North,7,1.0,6.0,22,0.00,,,0.00,,2013-05-06 00:31:00,
2013-05-05 18:41:00,63.0,24.0,29.37,North,7,1.0,6.0,22,0.00,,,0.00,,2013-05-06 00:41:00,
2013-05-05 18:51:00,62.0,25.0,29.39,North,9,7.0,20.0,24,0.00,,,0.00,,2013-05-06 00:51:00,
2013-05-05 19:01:00,62.0,25.0,29.39,NE,34,10.0,17.0,24,0.00,,,0.00,,2013-05-06 01:01:00,
2013-05-05 19:11:00,62.0,25.0,29.39,NE,34,10.0,17.0,24,0.00,,,0.00,,2013-05-06 01:11:00,
2013-05-05 19:21:00,61.0,25.0,29.38,NNE,21,10.0,20.0,25,0.00,,,0.00,,2013-05-06 01:21:00,
2013-05-05 19:31:00,61.0,24.0,29.36,NE,46,8.0,13.0,24,0.00,,,0.00,,2013-05-06 01:31:00,
2013-05-05 19:41:00,61.0,24.0,29.36,NE,46,8.0,13.0,24,0.00,,,0.00,,2013-05-06 01:41:00,
2013-05-05 19:52:00,61.0,23.0,29.36,NNW,347,0.0,2.0,23,0.00,,,0.00,,2013-05-06 01:52:00,
2013-05-05 20:01:00,61.0,23.0,29.36,NE,47,2.0,3.0,23,0.00,,,0.00,,2013-05-06 02:01:00,
2013-05-05 20:11:00,61.0,23.0,29.36,NE,47,2.0,3.0,23,0.00,,,0.00,,2013-05-06 02:11:00,
2013-05-05 20:21:00,60.0,24.0,29.37,SW,228,3.0,6.0,25,0.00,,,0.00,,2013-05-06 02:21:00,
2013-05-05 20:31:00,58.0,25.0,29.40,SSE,151,12.0,20.0,28,0.00,,,0.00,,2013-05-06 02:31:00,
2013-05-05 20:42:00,58.0,25.0,29.40,SSE,151,12.0,20.0,28,0.00,,,0.00,,2013-05-06 02:42:00,
2013-05-05 20:51:00,58.0,25.0,29.39,SSW,192,0.0,2.0,28,0.00,,,0.00,,2013-05-06 02:51:00,
2013-05-05 21:01:00,57.0,27.0,29.40,South,186,1.0,2.0,31,0.00,,,0.00,,2013-05-06 03:01:00,
2013-05-05 21:11:00,57.0,27.0,29.40,South,186,1.0,2.0,31,0.00,,,0.00,,2013-05-06 03:11:00,
2013-05-05 21:21:00,55.0,25.0,29.40,ESE,114,0.0,1.0,31,0.00,,,0.00,,2013-05-06 03:21:00,
2013-05-05 21:32:00,54.0,26.0,29.40,SE,128,1.0,3.0,34,0.00,,,0.00,,2013-05-06 03:32:00,
2013-05-05 21:42:00,54.0,26.0,29.40,SE,128,1.0,3.0,34,0.00,,,0.00,,2013-05-06 03:42:00,
2013-05-05 21:52:00,54.0,27.0,29.41,South,176,1.0,5.0,35,0.00,,,0.00,,2013-05-06 03:52:00,
2013-05-05 22:02:00,52.0,27.0,29.42,WNW,288,1.0,3.0,38,0.00,,,0.00,,2013-05-06 04:02:00,
2013-05-05 22:12:00,52.0,27.0,29.42,WNW,288,1.0,3.0,38,0.00,,,0.00,,2013-05-06 04:12:00,
2013-05-05 22:23:00,51.0,26.0,29.42,WNW,288,1.0,2.0,38,0.00,,,0.00,,2013-05-06 04:23:00,
2013-05-05 22:32:00,50.0,27.0,29.39,WNW,284,1.0,3.0,41,0.00,,,0.00,,2013-05-06 04:32:00,
2013-05-05 22:42:00,50.0,27.0,29.39,WNW,284,1.0,3.0,41,0.00,,,0.00,,2013-05-06 04:42:00,
2013-05-05 22:52:00,49.0,29.0,29.40,WNW,295,2.0,5.0,45,0.00,,,0.00,,2013-05-06 04:52:00,
2013-05-05 23:02:00,49.0,28.0,29.40,WNW,295,1.0,2.0,44,0.00,,,0.00,,2013-05-06 05:02:00,
2013-05-05 23:12:00,49.0,28.0,29.40,WNW,295,1.0,2.0,44,0.00,,,0.00,,2013-05-06 05:12:00,
2013-05-05 23:22:00,49.0,29.0,29.40,WNW,295,0.0,0.0,45,0.00,,,0.00,,2013-05-06 05:22:00,
2013-05-05 23:31:00,48.0,29.0,29.38,WNW,295,1.0,2.0,47,0.00,,,0.00,,2013-05-06 05:31:00,
2013-05-05 23:42:00,48.0,29.0,29.38,WNW,295,1.0,2.0,47,0.00,,,0.00,,2013-05-06 05:42:00,
2013-05-05 23:52:00,47.0,29.0,29.39,West,281,1.0,3.0,50,0.00,,,0.00,,2013-05-06 05:52:00,